User: anonymous   Login
Location: Hylvaty SDH
(49.9612°N, 16.4057°E)
Time: 03:36:26
(UTC+01:00)
Language:

Transit 2A Rocket - Orbit

View from above orbital plane
View from above orbital plane
View from above satellite
View from above satellite

Ground track
Ground track

The orbit data is extracted from the following two-line orbital elements,

1    47U 60007C   20024.82059061 -.00000070  00000-0  92928-5 0  9996
2    47  66.6647 181.7435 0222347  47.7703 314.2031 14.42069547114276
Epoch (UTC): 24 January 2020 19:41:39
Eccentricity: 0.0222347
inclination: 66.6647°
perigee height: 593 km
apogee height: 910 km
right ascension of ascending node: 181.7435°
argument of perigee: 47.7703°
revolutions per day: 14.42069547
mean anomaly at epoch: 314.2031°
orbit number at epoch: 11427

The dashed part of the orbit path shows where the satellite is in the earth's shadow,  

DLR